| time (UTC) | temp F | wind direction | speed MPH | gust MPH | rain 1hr in | rain 24hr in | rain mn in | humidity % | barometer mb |
| 20260905173027 | 56 | 48 | 1.0 | 3.0 | 0.00 | 0.02 | 0.02 | 80 | 1002.3 |
| 20260905171520 | 57 | 57 | 2.0 | 4.0 | 0.00 | 0.02 | 0.02 | 81 | 1002.2 |
| 20260905170018 | 58 | 71 | 1.0 | 7.0 | 0.00 | 0.02 | 0.02 | 81 | 1002.0 |
| 20260905164516 | 58 | 58 | 3.0 | 9.0 | 0.00 | 0.02 | 0.02 | 81 | 1001.8 |
| 20260905163021 | 58 | 65 | 3.0 | 7.0 | 0.00 | 0.02 | 0.02 | 80 | 1001.5 |
| 20260905161512 | 58 | 64 | 4.0 | 7.0 | 0.00 | 0.02 | 0.02 | 79 | 1001.4 |
| 20260905160012 | 59 | 70 | 2.0 | 5.0 | 0.00 | 0.02 | 0.02 | 79 | 1001.4 |
| 20260905154510 | 59 | 57 | 3.0 | 7.0 | 0.00 | 0.02 | 0.02 | 77 | 1001.2 |
| 20260905153010 | 59 | 97 | 4.0 | 7.0 | 0.00 | 0.02 | 0.02 | 76 | 1001.1 |
| 20260905151506 | 59 | 85 | 4.0 | 8.0 | 0.00 | 0.02 | 0.02 | 78 | 1001.0 |
| 20260905150006 | 58 | 86 | 3.0 | 8.0 | 0.00 | 0.02 | 0.02 | 78 | 1000.9 |
| 20260905144504 | 59 | 57 | 3.0 | 7.0 | 0.00 | 0.02 | 0.02 | 80 | 1000.7 |
| 20260905143002 | 59 | 35 | 5.0 | 7.0 | 0.00 | 0.02 | 0.02 | 79 | 1000.5 |
| 20260905141502 | 59 | 74 | 2.0 | 6.0 | 0.00 | 0.02 | 0.02 | 78 | 1000.5 |
| 20260905140101 | 59 | 60 | 6.0 | 10.0 | 0.00 | 0.02 | 0.02 | 77 | 1000.4 |
| 20260905134558 | 60 | 54 | 5.0 | 8.0 | 0.00 | 0.02 | 0.02 | 75 | 1000.3 |
| 20260905133057 | 60 | 69 | 4.0 | 10.0 | 0.00 | 0.02 | 0.02 | 73 | 1000.2 |
| 20260905131617 | 60 | 76 | 4.0 | 7.0 | 0.00 | 0.02 | 0.02 | 75 | 1000.1 |
| 20260905130100 | 60 | 93 | 4.0 | 9.0 | 0.00 | 0.02 | 0.02 | 73 | 1000.0 |
| 20260905124553 | 60 | 70 | 4.0 | 8.0 | 0.00 | 0.02 | 0.02 | 72 | 999.8 |
| 20260905123059 | 61 | 115 | 1.0 | 5.0 | 0.00 | 0.02 | 0.02 | 72 | 999.7 |
| 20260905121551 | 62 | 136 | 1.0 | 5.0 | 0.00 | 0.02 | 0.02 | 72 | 999.5 |
| 20260905120051 | 61 | 59 | 3.0 | 9.0 | 0.00 | 0.02 | 0.02 | 76 | 999.6 |
| 20260905114546 | 61 | 62 | 4.0 | 8.0 | 0.00 | 0.02 | 0.02 | 77 | 999.4 |
| 20260905113044 | 60 | 69 | 2.0 | 10.0 | 0.00 | 0.02 | 0.02 | 79 | 999.3 |
| 20260905111640 | 59 | 58 | 3.0 | 9.0 | 0.00 | 0.02 | 0.02 | 79 | 999.3 |
| 20260905110038 | 59 | 59 | 3.0 | 8.0 | 0.00 | 0.02 | 0.02 | 81 | 999.2 |
| 20260905104535 | 58 | 62 | 5.0 | 10.0 | 0.00 | 0.02 | 0.02 | 81 | 999.1 |
| 20260905103035 | 58 | 69 | 4.0 | 9.0 | 0.00 | 0.02 | 0.02 | 81 | 999.0 |
| 20260905101539 | 57 | 62 | 4.0 | 7.0 | 0.00 | 0.02 | 0.02 | 81 | 998.9 |
| 20260905100028 | 56 | 65 | 2.0 | 5.0 | 0.00 | 0.02 | 0.02 | 74 | 998.8 |
| 20260905094524 | 55 | 63 | 1.0 | 4.0 | 0.00 | 0.02 | 0.02 | 70 | 998.7 |
| 20260905093020 | 55 | 42 | 1.0 | 5.0 | 0.00 | 0.02 | 0.02 | 68 | 998.7 |
| 20260905091519 | 54 | 53 | 1.0 | 3.0 | 0.01 | 0.02 | 0.02 | 64 | 998.6 |
| 20260905090017 | 53 | 53 | 1.0 | 3.0 | 0.02 | 0.02 | 0.02 | 63 | 998.4 |
| 20260905084544 | 53 | 54 | 1.0 | 4.0 | 0.02 | 0.04 | 0.02 | 65 | 998.4 |
| 20260905083020 | 53 | 29 | 2.0 | 5.0 | 0.01 | 0.03 | 0.01 | 69 | 998.4 |
| 20260905081514 | 53 | 64 | 2.0 | 4.0 | 0.01 | 0.03 | 0.01 | 68 | 998.2 |
| 20260905080012 | 53 | 53 | 2.0 | 4.0 | 0.00 | 0.02 | 0.00 | 70 | 998.1 |
| 20260905074511 | 53 | 53 | 1.0 | 3.0 | 0.00 | 0.10 | 0.00 | 70 | 997.9 |
| 20260905073015 | 53 | 63 | 0.0 | 5.0 | 0.00 | 0.10 | 0.00 | 68 | 997.8 |
| 20260905071508 | 53 | 63 | 2.0 | 5.0 | 0.00 | 0.10 | 0.00 | 66 | 997.6 |
| 20260905070007 | 53 | 67 | 2.0 | 4.0 | 0.00 | 0.10 | 0.00 | 63 | 997.4 |
| 20260905064504 | 52 | 59 | 2.0 | 5.0 | 0.00 | 0.17 | 0.00 | 57 | 997.3 |
| 20260905063005 | 52 | 58 | 1.0 | 3.0 | 0.00 | 0.17 | 0.00 | 54 | 997.1 |
| 20260905061502 | 52 | 52 | 1.0 | 3.0 | 0.00 | 0.17 | 0.00 | 52 | 996.9 |
| 20260905060100 | 51 | 49 | 1.0 | 3.0 | 0.00 | 0.17 | 0.00 | 52 | 996.8 |
| 20260905054600 | 51 | 49 | 1.0 | 3.0 | 0.00 | 0.20 | 0.00 | 53 | 996.6 |
| 20260905053110 | 51 | 49 | 1.0 | 2.0 | 0.00 | 0.20 | 0.00 | 53 | 996.5 |
| 20260905051555 | 51 | 49 | 0.0 | 2.0 | 0.00 | 0.20 | 0.00 | 54 | 996.4 |
| 20260905050054 | 51 | 49 | 0.0 | 3.0 | 0.00 | 0.20 | 0.00 | 54 | 996.3 |
| 20260905044553 | 50 | 45 | 1.0 | 4.0 | 0.00 | 0.20 | 0.00 | 53 | 996.3 |
| 20260905043051 | 50 | 61 | 0.0 | 1.0 | 0.00 | 0.20 | 0.00 | 53 | 996.1 |
| 20260905041549 | 50 | 61 | 0.0 | 1.0 | 0.00 | 0.20 | 0.00 | 54 | 995.9 |
| 20260905040047 | 50 | 61 | 0.0 | 1.0 | 0.00 | 0.20 | 0.00 | 56 | 995.8 |
| 20260905034548 | 49 | 61 | 0.0 | 1.0 | 0.00 | 0.20 | 0.00 | 59 | 995.6 |
| 20260905033042 | 50 | 61 | 0.0 | 1.0 | 0.00 | 0.20 | 0.00 | 61 | 995.4 |
| 20260905031541 | 50 | 61 | 0.0 | 2.0 | 0.00 | 0.20 | 0.00 | 61 | 995.1 |
| 20260905030040 | 50 | 61 | 0.0 | 1.0 | 0.00 | 0.20 | 0.00 | 62 | 995.1 |
| 20260905024551 | 50 | 61 | 0.0 | 1.0 | 0.00 | 0.20 | 0.00 | 63 | 995.0 |
| 20260905023042 | 50 | 61 | 0.0 | 3.0 | 0.00 | 0.20 | 0.00 | 61 | 995.0 |
| 20260905021541 | 50 | 64 | 0.0 | 5.0 | 0.00 | 0.20 | 0.00 | 61 | 994.9 |
| 20260905020037 | 50 | 57 | 1.0 | 5.0 | 0.00 | 0.20 | 0.00 | 60 | 994.9 |
| 20260905014533 | 50 | 54 | 2.0 | 4.0 | 0.00 | 0.20 | 0.00 | 61 | 994.8 |
| 20260905013033 | 50 | 66 | 1.0 | 3.0 | 0.00 | 0.20 | 0.00 | 59 | 994.5 |
| 20260905011529 | 50 | 66 | 1.0 | 3.0 | 0.00 | 0.20 | 0.00 | 60 | 994.6 |
| 20260905010028 | 50 | 66 | 1.0 | 2.0 | 0.00 | 0.20 | 0.00 | 64 | 994.5 |
| 20260905004525 | 50 | 66 | 1.0 | 2.0 | 0.00 | 0.20 | 0.00 | 68 | 994.4 |
| 20260905003023 | 50 | 66 | 0.0 | 2.0 | 0.00 | 0.20 | 0.00 | 69 | 994.4 |
| 20260905001521 | 51 | 66 | 0.0 | 3.0 | 0.00 | 0.20 | 0.00 | 71 | 994.3 |
| 20260905000019 | 51 | 92 | 0.0 | 3.0 | 0.00 | 0.20 | 0.00 | 70 | 994.3 |
| 20260904234533 | 51 | 83 | 1.0 | 7.0 | 0.00 | 0.20 | 0.00 | 71 | 994.3 |
| 20260904233015 | 52 | 92 | 1.0 | 4.0 | 0.00 | 0.20 | 0.00 | 73 | 994.3 |
| 20260904231516 | 53 | 161 | 0.0 | 5.0 | 0.00 | 0.20 | 0.00 | 73 | 994.2 |
| 20260904230009 | 53 | 96 | 3.0 | 7.0 | 0.00 | 0.20 | 0.00 | 75 | 994.1 |
| 20260904224506 | 54 | 71 | 4.0 | 10.0 | 0.00 | 0.20 | 0.00 | 73 | 994.0 |
| 20260904223004 | 54 | 85 | 3.0 | 10.0 | 0.00 | 0.20 | 0.00 | 71 | 993.9 |
| 20260904221502 | 54 | 86 | 1.0 | 10.0 | 0.00 | 0.20 | 0.00 | 70 | 993.9 |
| 20260904214607 | 54 | 58 | 1.0 | 4.0 | 0.00 | 0.20 | 0.20 | 70 | 993.7 |
| 20260904213059 | 54 | 59 | 2.0 | 4.0 | 0.00 | 0.20 | 0.20 | 72 | 993.6 |
| 20260904211604 | 54 | 88 | 1.0 | 5.0 | 0.00 | 0.20 | 0.20 | 74 | 993.6 |
| 20260904210056 | 55 | 76 | 2.0 | 5.0 | 0.00 | 0.20 | 0.20 | 73 | 993.6 |
| 20260904204556 | 54 | 74 | 2.0 | 5.0 | 0.00 | 0.20 | 0.20 | 72 | 993.7 |
| 20260904203054 | 54 | 65 | 2.0 | 3.0 | 0.00 | 0.20 | 0.20 | 75 | 993.6 |
| 20260904201601 | 54 | 62 | 1.0 | 4.0 | 0.00 | 0.20 | 0.20 | 76 | 993.8 |
| 20260904200057 | 54 | 47 | 1.0 | 4.0 | 0.00 | 0.20 | 0.20 | 78 | 993.7 |
| 20260904194557 | 55 | 72 | 1.0 | 4.0 | 0.00 | 0.20 | 0.20 | 79 | 993.6 |
| 20260904193052 | 55 | 52 | 3.0 | 7.0 | 0.00 | 0.20 | 0.20 | 80 | 993.8 |
| 20260904191552 | 56 | 48 | 2.0 | 6.0 | 0.00 | 0.20 | 0.20 | 81 | 993.7 |
| 20260904190051 | 56 | 66 | 4.0 | 8.0 | 0.00 | 0.20 | 0.20 | 81 | 993.7 |
| 20260904184603 | 57 | 47 | 2.0 | 6.0 | 0.00 | 0.20 | 0.20 | 80 | 993.8 |
| 20260904183050 | 58 | 64 | 3.0 | 7.0 | 0.00 | 0.20 | 0.20 | 80 | 993.9 |
| 20260904181550 | 58 | 50 | 3.0 | 6.0 | 0.00 | 0.20 | 0.20 | 79 | 993.9 |
| 20260904174550 | 59 | 27 | 2.0 | 5.0 | 0.00 | 0.20 | 0.20 | 77 | 993.8 |